TimeCDT,TemperatureF,Dew PointF,Humidity,Sea Level PressureIn,VisibilityMPH,Wind Direction,Wind SpeedMPH,Gust SpeedMPH,PrecipitationIn,Events,Conditions,WindDirDegrees,DateUTC
12:15 AM,36.7,34.3,91,29.60,5.0,WSW,20.7,26.5,N/A,,Overcast,250,2013-04-12 05:15:00
12:35 AM,35.2,32.9,91,29.60,10.0,West,16.1,20.7,N/A,,Overcast,260,2013-04-12 05:35:00
12:55 AM,35.2,32.4,89,29.60,10.0,West,16.1,20.7,N/A,,Overcast,260,2013-04-12 05:55:00
1:15 AM,35.2,32.4,89,29.60,10.0,WSW,12.7,21.9,N/A,,Overcast,250,2013-04-12 06:15:00
1:35 AM,35.2,32.4,89,29.60,10.0,WSW,13.8,-,N/A,,Overcast,250,2013-04-12 06:35:00
1:55 AM,35.2,32.0,88,29.59,10.0,WSW,10.4,18.4,N/A,,Overcast,250,2013-04-12 06:55:00
2:15 AM,35.2,32.0,88,29.59,10.0,WSW,12.7,-,N/A,,Overcast,250,2013-04-12 07:15:00
2:35 AM,35.2,32.4,89,29.59,10.0,West,13.8,-,N/A,,Overcast,260,2013-04-12 07:35:00
2:55 AM,35.1,32.0,89,29.58,10.0,WSW,11.5,17.3,N/A,,Overcast,250,2013-04-12 07:55:00
3:15 AM,35.1,32.2,89,29.58,10.0,WSW,12.7,-,N/A,,Overcast,240,2013-04-12 08:15:00
3:35 AM,35.1,32.0,89,29.57,10.0,WSW,11.5,-,N/A,,Overcast,250,2013-04-12 08:35:00
3:55 AM,35.1,32.0,89,29.57,10.0,WSW,11.5,-,N/A,,Overcast,240,2013-04-12 08:55:00
4:15 AM,34.2,31.5,90,29.57,10.0,WSW,15.0,-,N/A,,Overcast,240,2013-04-12 09:15:00
4:35 AM,34.0,31.1,89,29.57,10.0,WSW,10.4,-,N/A,,Overcast,240,2013-04-12 09:35:00
4:55 AM,34.0,31.1,89,29.57,10.0,WSW,10.4,-,N/A,,Overcast,240,2013-04-12 09:55:00
5:15 AM,34.0,31.1,89,29.57,10.0,SW,13.8,-,N/A,,Overcast,230,2013-04-12 10:15:00
5:35 AM,33.8,31.1,90,29.57,10.0,WSW,13.8,-,N/A,,Overcast,240,2013-04-12 10:35:00
5:55 AM,33.8,30.9,89,29.57,10.0,WSW,13.8,-,N/A,,Overcast,240,2013-04-12 10:55:00
6:15 AM,33.8,30.9,89,29.57,10.0,WSW,11.5,-,N/A,,Overcast,240,2013-04-12 11:15:00
6:35 AM,33.8,31.1,90,29.57,10.0,WSW,11.5,-,N/A,,Overcast,240,2013-04-12 11:35:00
6:55 AM,33.8,31.1,90,29.58,10.0,SW,13.8,-,N/A,,Overcast,230,2013-04-12 11:55:00
7:15 AM,34.0,31.1,89,29.59,10.0,SW,12.7,-,N/A,,Overcast,230,2013-04-12 12:15:00
7:35 AM,34.2,31.5,90,29.59,10.0,SW,11.5,-,N/A,,Overcast,230,2013-04-12 12:35:00
7:55 AM,34.7,32.0,90,29.60,7.0,SW,11.5,-,N/A,,Overcast,230,2013-04-12 12:55:00
8:15 AM,35.1,32.0,89,29.60,7.0,WSW,12.7,17.3,N/A,,Overcast,240,2013-04-12 13:15:00
8:35 AM,35.4,32.4,89,29.61,7.0,WSW,12.7,-,N/A,,Overcast,240,2013-04-12 13:35:00
8:55 AM,36.0,32.5,87,29.61,10.0,WSW,13.8,20.7,N/A,,Overcast,240,2013-04-12 13:55:00
9:15 AM,37.2,33.6,87,29.61,10.0,SW,15.0,19.6,N/A,,Overcast,230,2013-04-12 14:15:00
9:35 AM,37.6,33.3,84,29.61,10.0,WSW,15.0,-,N/A,,Overcast,240,2013-04-12 14:35:00
9:55 AM,37.9,33.3,83,29.61,10.0,WSW,17.3,-,N/A,,Overcast,240,2013-04-12 14:55:00
10:15 AM,38.5,33.8,83,29.62,10.0,WSW,12.7,-,N/A,,Overcast,250,2013-04-12 15:15:00
10:35 AM,38.7,33.3,81,29.62,10.0,West,13.8,-,N/A,,Overcast,260,2013-04-12 15:35:00
10:55 AM,38.5,33.4,82,29.62,10.0,WSW,16.1,-,N/A,,Overcast,240,2013-04-12 15:55:00
11:15 AM,38.5,33.4,82,29.63,10.0,WSW,15.0,-,N/A,,Overcast,250,2013-04-12 16:15:00
11:35 AM,39.6,33.8,80,29.64,10.0,WSW,16.1,-,N/A,,Overcast,250,2013-04-12 16:35:00
11:55 AM,38.7,33.4,81,29.64,10.0,WSW,17.3,23.0,N/A,,Overcast,250,2013-04-12 16:55:00
12:15 PM,41.5,35.4,79,29.64,10.0,SW,15.0,-,N/A,,Overcast,230,2013-04-12 17:15:00
12:35 PM,40.8,34.0,77,29.64,10.0,WSW,16.1,-,N/A,,Overcast,240,2013-04-12 17:35:00
12:55 PM,39.7,35.6,85,29.65,3.0,WSW,16.1,21.9,N/A,,Light Drizzle,240,2013-04-12 17:55:00
1:15 PM,41.0,35.6,81,29.65,10.0,WSW,18.4,21.9,N/A,,Overcast,240,2013-04-12 18:15:00
1:35 PM,41.9,35.4,78,29.65,10.0,WSW,17.3,26.5,N/A,,Overcast,240,2013-04-12 18:35:00
1:55 PM,41.5,35.4,79,29.67,10.0,WSW,24.2,-,N/A,,Overcast,240,2013-04-12 18:55:00
2:15 PM,40.8,35.2,80,29.67,10.0,WSW,21.9,26.5,N/A,,Overcast,250,2013-04-12 19:15:00
2:35 PM,39.9,35.1,83,29.68,10.0,WSW,21.9,26.5,N/A,,Overcast,240,2013-04-12 19:35:00
2:55 PM,40.8,36.0,83,29.69,7.0,WSW,20.7,26.5,N/A,,Overcast,250,2013-04-12 19:55:00
3:15 PM,38.7,35.6,89,29.70,2.0,WSW,21.9,29.9,N/A,,Light Drizzle,250,2013-04-12 20:15:00
3:35 PM,38.8,35.8,89,29.70,5.0,West,20.7,27.6,N/A,,Overcast,260,2013-04-12 20:35:00
3:55 PM,39.2,35.6,87,29.71,10.0,West,21.9,28.8,N/A,,Overcast,260,2013-04-12 20:55:00
4:15 PM,38.3,34.0,84,29.72,10.0,WSW,19.6,29.9,N/A,,Overcast,250,2013-04-12 21:15:00
4:35 PM,37.8,33.4,84,29.74,10.0,West,19.6,29.9,N/A,,Overcast,260,2013-04-12 21:35:00
4:55 PM,37.8,32.4,81,29.74,10.0,West,19.6,28.8,N/A,,Overcast,260,2013-04-12 21:55:00
5:15 PM,37.6,32.0,80,29.76,10.0,West,20.7,27.6,N/A,,Overcast,260,2013-04-12 22:15:00
5:35 PM,37.6,31.8,80,29.77,10.0,West,19.6,26.5,N/A,,Overcast,270,2013-04-12 22:35:00
5:55 PM,36.9,30.7,79,29.78,10.0,West,23.0,32.2,N/A,,Overcast,270,2013-04-12 22:55:00
6:15 PM,36.9,30.4,77,29.79,10.0,West,17.3,26.5,N/A,,Overcast,260,2013-04-12 23:15:00
6:35 PM,36.5,30.2,78,29.79,10.0,West,15.0,23.0,N/A,,Overcast,260,2013-04-12 23:35:00
6:55 PM,36.5,29.7,76,29.79,10.0,West,15.0,24.2,N/A,,Overcast,270,2013-04-12 23:55:00
7:15 PM,36.5,29.5,76,29.80,10.0,West,15.0,21.9,N/A,,Overcast,260,2013-04-13 00:15:00
7:35 PM,36.3,29.7,77,29.80,10.0,West,12.7,-,N/A,,Overcast,260,2013-04-13 00:35:00
7:55 PM,36.1,29.3,76,29.81,10.0,West,13.8,17.3,N/A,,Overcast,260,2013-04-13 00:55:00
8:15 PM,36.0,29.8,78,29.81,10.0,West,11.5,-,N/A,,Overcast,260,2013-04-13 01:15:00
8:35 PM,36.0,30.0,79,29.81,10.0,West,10.4,-,N/A,,Overcast,260,2013-04-13 01:35:00
8:55 PM,36.0,30.2,80,29.82,10.0,West,9.2,16.1,N/A,,Overcast,260,2013-04-13 01:55:00
9:15 PM,36.1,30.2,79,29.82,10.0,West,8.1,-,N/A,,Overcast,260,2013-04-13 02:15:00
9:35 PM,36.0,30.6,81,29.83,10.0,West,10.4,-,N/A,,Overcast,260,2013-04-13 02:35:00
9:55 PM,36.5,30.6,79,29.84,10.0,West,11.5,18.4,N/A,,Overcast,260,2013-04-13 02:55:00
10:15 PM,36.0,30.4,80,29.84,10.0,West,16.1,20.7,N/A,,Overcast,270,2013-04-13 03:15:00
10:35 PM,35.8,30.2,80,29.84,10.0,West,12.7,16.1,N/A,,Overcast,270,2013-04-13 03:35:00
10:55 PM,35.8,30.2,80,29.83,10.0,West,12.7,18.4,N/A,,Overcast,260,2013-04-13 03:55:00
11:15 PM,35.6,30.0,80,29.84,10.0,West,11.5,-,N/A,,Overcast,260,2013-04-13 04:15:00
11:35 PM,35.2,30.0,81,29.84,10.0,West,12.7,-,N/A,,Overcast,270,2013-04-13 04:35:00
11:55 PM,35.1,29.8,81,29.85,10.0,West,15.0,21.9,N/A,,Overcast,270,2013-04-13 04:55:00